Skip Page Navigation
NASA JPL Caltech
NASA Logo - Jet Propulsion Laboratory + View the NASA Portal
+ Near-Earth Object (NEO) Program
Search JPL
JPL Home Earth Solar System Stars & Galaxies Technology
JPL Solar System Dynamics
BODIES ORBITS EPHEMERIDES TOOLS PHYSICAL DATA DISCOVERY FAQ SITE MAP
JPL Small-Body Database Browser
Search: [ help ]  
12607 Alcaeus (2058 P-L)
Classification: Main-belt Asteroid          SPK-ID: 2012607
Ephemeris | Orbit Diagram | Orbital Elements | Physical Parameters | Discovery Circumstances | Close-Approach Data ]

[ show orbit diagram ]
Orbital Elements at Epoch 2457600.5 (2016-Jul-31.0) TDB
Reference: JPL 14 (heliocentric ecliptic J2000)
 Element Value Uncertainty (1-sigma)   Units 
e .03626025559057705 5.3936e-08  
a 2.654586581173893 1.9171e-08 au
q 2.558330593253212 1.4799e-07 au
i 2.187805594987996 5.9658e-06 deg
node 277.0960984212494 0.00017926 deg
peri 11.3005173192852 0.00020795 deg
M 46.12674799976397 0.00010911 deg
tp 2457398.084341582710
(2016-Jan-10.58434158)
0.00047851 JED
period 1579.769660557843
4.33
1.7114e-05
4.686e-08
d
yr
n .2278813228207446 2.4686e-09 deg/d
Q 2.750842569094575 1.9867e-08 au
  Orbit Determination Parameters
   # obs. used (total)      754  
   data-arc span      19991 days (54.73 yr)  
   first obs. used      1960-09-24  
   last obs. used      2015-06-19  
   planetary ephem.      DE431  
   SB-pert. ephem.      SB431-BIG16  
   condition code      0  
   fit RMS      .54297  
   data source      ORB  
   producer      Otto Matic  
   solution date      2015-Jul-06 12:10:02  

Additional Information
 Earth MOID = 1.54173 au 
 Jupiter MOID = 2.29875 au 
 T_jup = 3.387 
[ show covariance matrix ]

Ephemeris | Orbit Diagram | Orbital Elements | Physical Parameters | Discovery Circumstances | Close-Approach Data ]

Physical Parameter Table
Parameter Symbol Value Units Sigma Reference Notes
absolute magnitude H 14.7 mag n/a MPO337365  

12607 Alcaeus           Discovered 1960 Sept. 24 by C. J. van Houten and I. van Houten-Groeneveld on Palomar Schmidt plates taken by T. Gehrels.
Alcaeus (ca. 620 B.C.-ca. 580 B.C.) was a Greek poet from the island of Lesbos. His songs are as famous as those of Sappho. Many of his songs were translated into Latin and influenced Theocrites and Horace.
NOTE: some special characters may not display properly (any characters within {} are an attempt to place the proper accent above a character)
Reference: 20071124/MPCPages.arcLast Updated: 2007-11-26

[ show close-approach data ]
Alternate Designations
 2058 P-L = 1993 FB28 
Ephemeris | Orbit Diagram | Orbital Elements | Physical Parameters | Discovery Circumstances | Close-Approach Data ]
ABOUT SSD CREDITS/AWARDS PRIVACY/COPYRIGHT GLOSSARY LINKS
FirstGov 2016-May-04 21:10 UT
(server date/time)  
NASA Home Page
Site Manager:   Ryan S. Park
Webmaster  Alan B. Chamberlin